Location: *
(58.7167°N, 26.1833°E)
Time: 04:03:53
(UTC+00:00)

Cosmos 1500 - Pass Details

Date: 25 August 2019
Orbit: 499 x 522 km, 82.5° (Epoch: 17 September)

Event Time Altitude Azimuth Distance (km) Brightness Sun altitude
Rises 18:41:09 0° 184° (S) 2,640 6.5 -8.1°
Reaches altitude 10° 18:43:17 10° 182° (S) 1,754 5.6 -8.4°
Maximum altitude 18:47:07 68° 99° (E) 565 3.2 -8.8°
Drops below altitude 10° 18:50:57 10° 17° (NNE) 1,757 6.2 -9.1°
Sets 18:53:05 0° 15° (NNE) 2,645 7.1 -9.4°
